Wind_Speed
44 45 45 45 46 47 46 46 47 47 48 48 49 50 50 50 50 51 51 52 52 53 53 53 53 53 54 54 55 55 56 56 56 55 56 57 57 58 58 59 60 59 61
44 44 45 46 47 48 48 48 48 48 49 50 50 51 50 50 51 52 52 53 53 53 54 54 55 55 55 56 56 56 57 57 57 56 56 57 58 58 59 60 60 60 61
44 45 45 46 47 48 48 49 49 49 50 51 51 51 52 52 53 53 53 53 54 54 55 56 56 57 57 57 56 55 57 57 58 58 57 58 59 60 60 62 62 61 62
44 44 45 46 46 47 47 48 49 50 50 50 51 51 52 52 53 53 54 54 54 55 56 57 57 57 57 56 56 57 57 57 58 59 58 59 59 60 60 62 62 63 62
43 43 44 45 45 46 46 47 48 49 49 49 50 50 51 51 53 53 54 54 54 54 55 56 57 57 57 57 57 57 57 57 58 59 59 59 59 60 61 62 63 63 63
41 42 43 43 44 45 46 47 47 47 47 48 49 50 50 51 51 52 53 53 54 53 53 54 55 55 56 58 58 58 58 58 59 59 59 60 60 61 62 63 63 62 62
40 41 41 42 42 44 45 46 46 46 48 49 49 49 50 51 51 52 52 53 52 53 54 54 55 55 56 57 58 58 58 59 59 60 60 60 61 61 61 62 63 63 62
40 39 40 41 42 42 43 44 45 47 48 48 48 48 49 51 51 51 51 51 51 53 53 54 54 55 55 56 56 57 58 58 58 59 59 59 59 60 61 61 61 62 61
38 38 39 39 40 41 42 43 44 45 46 47 47 48 48 49 51 51 52 52 52 53 53 54 55 55 56 56 57 57 57 58 58 58 58 58 58 58 59 61 61 62 61
37 37 39 39 39 40 41 42 43 43 44 45 46 46 47 49 50 51 51 52 52 52 52 53 54 55 55 56 57 56 56 57 57 57 57 57 58 57 58 59 60 61 61
37 37 39 39 40 40 41 41 42 43 43 44 45 46 47 48 49 50 50 51 51 51 51 52 52 53 54 55 55 54 54 55 56 56 56 56 57 56 56 56 56 58 59
37 38 39 39 40 40 41 41 42 42 43 44 45 46 47 48 48 49 49 50 50 51 50 50 50 51 51 52 53 53 53 53 53 54 54 54 54 55 54 54 54 55 55
37 38 38 38 39 40 40 41 42 42 43 44 45 45 46 46 47 47 47 48 49 49 49 48 48 49 49 50 51 51 52 52 52 52 52 52 52 52 52 52 52 52 52
36 36 36 37 38 39 40 40 41 42 42 42 42 43 44 45 45 46 46 46 47 47 46 46 46 47 48 49 49 50 49 49 50 50 50 51 52 52 51 52 52 52 52
35 35 36 37 38 38 38 39 39 39 40 40 41 41 42 43 45 45 45 45 45 46 46 46 46 47 47 47 48 48 48 48 48 48 48 48 50 51 51 52 52 52 53
34 34 35 35 36 37 37 37 37 38 39 40 40 41 41 42 43 43 44 44 45 45 45 46 46 47 47 46 45 45 46 46 47 47 46 46 47 48 49 50 50 51 52
34 34 35 35 36 36 36 36 36 37 38 39 40 41 41 41 41 41 41 42 43 44 44 44 44 44 44 44 44 44 45 45 46 46 46 46 46 47 48 48 49 49 49
33 33 34 34 35 35 35 36 36 37 38 39 39 40 40 40 41 41 41 42 43 43 43 43 43 43 43 43 43 43 43 44 44 45 45 45 46 46 46 46 47 47 47
33 34 34 34 35 35 35 36 37 37 38 38 39 39 40 40 41 41 41 42 42 42 42 42 42 42 42 42 42 42 42 42 43 43 43 43 44 44 44 44 44 44 44
33 34 34 34 34 35 36 37 37 37 38 38 38 39 39 39 40 41 41 42 42 42 41 41 41 40 40 40 40 41 40 40 40 41 41 41 41 41 41 41 41 41 41
33 33 33 34 34 35 36 36 36 36 37 37 37 37 38 38 39 40 40 40 40 40 39 39 39 39 38 39 38 38 38 37 38 38 38 39 39 39 39 39 39 39 39
32 32 33 33 34 34 34 34 34 34 35 36 36 36 37 37 37 37 37 37 37 36 36 36 36 36 36 36 36 35 35 36 36 36 36 36 36 36 37 37 37 37 36
31 31 32 32 33 34 33 33 34 34 34 35 35 35 35 35 36 35 34 34 33 33 33 33 33 33 33 33 34 34 34 33 33 34 34 34 34 34 34 34 35 34 34
30 31 31 32 32 32 32 32 32 33 33 33 33 33 33 33 33 32 32 31 31 31 31 31 32 32 32 32 32 32 32 32 32 32 32 32 32 32 32 32 31 31 30
31 31 31 31 31 31 31 31 31 31 31 31 31 31 31 31 30 30 29 29 28 28 29 29 28 29 29 30 30 30 30 30 30 30 30 30 29 29 28 28 27 27 27
30 30 30 30 30 30 30 30 30 30 30 30 30 30 30 29 28 28 27 26 26 26 26 26 26 26 27 27 27 28 28 28 27 27 27 26 25 25 25 24 23 24 24
Wind_Direction
264 264 263 263 262 262 263 264 264 264 264 264 264 264 265 265 265 266 266 267 267 266 265 265 265 265 266 267 267 266 265 264 264 263 262 262 261 259 258 258 258 259 259
264 264 265 264 262 262 263 264 264 265 265 265 265 265 265 266 267 267 268 268 268 267 266 265 266 266 267 267 267 266 265 265 264 263 262 262 261 260 260 259 258 259 259
265 265 265 265 263 263 264 265 265 266 266 265 265 265 266 266 267 268 269 268 268 268 267 266 266 267 267 268 267 267 266 265 264 264 263 263 262 262 261 260 259 259 260
267 267 266 266 265 265 265 266 266 267 266 266 265 265 266 267 267 268 268 268 268 268 267 267 266 266 267 267 267 266 265 264 264 264 263 263 263 263 262 261 260 261 261
269 268 267 266 265 265 265 266 267 268 266 265 264 265 266 267 267 268 268 268 269 269 268 267 267 266 266 266 267 267 267 266 265 265 264 264 264 264 264 263 262 262 262
270 270 269 268 267 267 267 267 268 267 266 265 266 266 267 267 268 268 269 269 269 269 269 268 267 267 267 267 267 267 267 267 266 266 266 265 265 266 265 265 264 263 262
272 271 270 268 268 268 268 268 268 269 268 267 267 268 268 267 268 269 269 269 268 269 270 268 267 267 267 267 267 266 267 267 266 266 266 267 267 267 266 266 265 264 263
272 272 271 270 270 270 269 269 269 269 269 269 269 269 269 269 269 269 269 268 269 270 270 270 268 267 267 268 268 267 267 266 267 267 267 268 267 267 266 266 265 264 263
272 271 270 271 272 271 271 271 271 269 269 269 269 270 270 270 270 270 270 269 270 271 271 271 269 268 267 268 268 268 267 267 267 268 268 267 267 267 267 266 264 264 263
273 272 272 272 273 273 273 273 272 271 270 270 270 271 272 272 271 271 270 271 272 271 271 271 270 269 268 268 268 268 268 268 267 267 267 267 267 267 267 266 265 263 262
274 274 274 275 275 275 275 275 274 273 273 272 272 272 273 274 274 273 273 273 272 272 271 271 270 270 270 269 269 269 269 268 267 266 267 267 267 266 267 267 266 264 263
276 276 276 276 277 277 276 276 276 275 275 274 274 274 274 275 275 275 275 274 274 273 273 272 273 272 271 271 270 269 269 268 267 267 267 267 266 265 266 266 266 266 265
277 278 278 278 278 278 278 278 277 277 277 277 277 277 276 276 277 276 276 276 275 274 274 273 273 273 272 272 271 269 268 268 267 267 267 266 266 266 266 266 266 266 265
278 278 277 278 280 281 280 280 279 278 279 279 278 278 278 277 277 277 276 276 276 275 274 274 273 274 273 273 272 270 269 268 267 267 266 266 265 266 266 266 266 265 264
280 280 280 281 282 282 281 281 281 280 280 280 279 279 279 278 278 277 277 277 277 276 275 275 274 273 273 273 272 270 269 269 268 267 267 267 267 266 266 267 267 266 265
282 282 283 284 284 284 284 283 282 282 281 281 281 282 281 280 279 278 278 278 278 277 276 276 275 275 274 274 273 271 270 269 269 268 268 268 268 268 268 267 268 267 266
284 284 285 286 286 286 285 285 284 283 283 283 283 283 282 282 281 280 279 278 278 278 278 276 276 275 274 274 273 272 270 269 268 268 268 268 268 269 269 269 269 268 267
286 286 286 286 286 286 286 285 285 285 285 285 285 284 284 283 282 281 279 279 279 278 277 277 276 275 274 273 273 272 270 269 269 268 268 268 268 269 270 270 270 268 267
287 286 286 287 287 286 286 286 286 286 286 286 285 285 285 285 284 283 281 280 280 279 277 277 276 275 274 273 273 272 271 271 269 268 268 269 269 270 270 270 269 268 268
289 289 288 288 287 287 287 287 288 287 287 287 286 286 286 286 285 284 283 282 281 280 278 277 276 275 273 273 273 273 272 271 270 269 269 270 270 270 269 269 268 268 268
293 291 290 289 289 289 289 289 289 289 289 289 288 288 287 287 287 286 284 282 281 280 278 276 275 274 274 274 274 274 273 272 271 270 270 269 270 270 269 269 269 268 268
295 294 292 291 292 292 291 291 291 291 291 291 290 290 289 289 289 288 286 284 282 279 278 276 274 274 273 274 274 273 273 273 272 270 270 270 271 270 269 269 268 268 266
299 298 297 295 294 294 293 292 293 293 293 293 292 291 291 291 291 291 289 285 282 279 277 276 275 274 274 274 274 273 273 273 272 270 270 270 270 269 269 268 267 267 264
301 302 301 299 297 296 296 296 296 296 296 295 295 294 294 293 293 292 290 287 284 281 279 277 275 274 274 274 274 273 273 273 272 270 269 269 269 268 268 267 266 265 263
303 304 303 302 301 300 299 299 299 298 298 298 298 297 296 296 294 293 291 288 285 283 281 279 277 274 273 273 273 273 273 272 272 269 268 269 268 267 266 265 264 262 261
304 305 304 304 303 303 302 302 301 299 299 299 299 298 298 298 297 294 293 290 287 285 282 280 278 277 275 275 274 273 272 272 271 269 266 265 265 264 264 263 261 260 260
Height
5588 5589 5590 5590 5591 5592 5592 5593 5594 5594 5595 5595 5596 5597 5598 5598 5599 5600 5601 5602 5603 5605 5606 5607 5608 5608 5609 5610 5610 5611 5612 5613 5616 5620 5621 5622 5623 5625 5627 5629 5632 5635 5637
5576 5577 5577 5578 5579 5579 5580 5580 5581 5581 5582 5582 5583 5583 5584 5585 5585 5586 5587 5588 5588 5589 5591 5591 5592 5593 5594 5595 5595 5595 5596 5597 5598 5602 5604 5605 5606 5608 5610 5612 5615 5617 5620
5564 5564 5565 5565 5566 5566 5567 5568 5568 5568 5568 5569 5569 5570 5570 5570 5571 5571 5572 5572 5573 5574 5575 5576 5577 5577 5578 5579 5579 5579 5580 5581 5581 5584 5587 5588 5590 5590 5592 5594 5597 5599 5601
5551 5552 5552 5552 5553 5554 5554 5554 5554 5554 5554 5555 5555 5555 5556 5556 5556 5556 5557 5557 5557 5558 5558 5559 5560 5561 5562 5563 5563 5563 5563 5564 5565 5567 5569 5571 5572 5573 5574 5576 5579 5581 5583
5539 5539 5539 5540 5540 5541 5541 5541 5540 5540 5540 5540 5541 5541 5541 5541 5541 5541 5541 5542 5542 5542 5543 5543 5544 5545 5545 5546 5546 5547 5547 5547 5548 5550 5552 5553 5555 5555 5557 5558 5560 5563 5565
5526 5526 5526 5527 5527 5527 5527 5527 5527 5526 5526 5527 5527 5527 5527 5526 5526 5526 5526 5526 5526 5527 5527 5527 5528 5528 5529 5529 5529 5530 5530 5531 5532 5533 5535 5536 5538 5538 5539 5540 5541 5544 5548
5514 5514 5514 5514 5514 5514 5514 5514 5513 5513 5513 5513 5512 5512 5512 5512 5511 5511 5511 5511 5511 5512 5512 5512 5512 5512 5512 5512 5512 5513 5513 5514 5515 5517 5518 5519 5520 5521 5521 5522 5522 5524 5528
5502 5502 5502 5502 5502 5501 5501 5500 5500 5500 5499 5499 5499 5498 5498 5497 5496 5496 5496 5496 5496 5496 5496 5496 5496 5496 5496 5496 5496 5496 5497 5498 5499 5499 5500 5502 5501 5501 5501 5502 5504 5506 5510
5491 5490 5490 5490 5489 5489 5488 5487 5487 5486 5486 5485 5485 5484 5484 5482 5481 5481 5481 5481 5481 5481 5481 5480 5480 5480 5480 5479 5480 5480 5481 5481 5481 5481 5482 5483 5483 5484 5483 5483 5485 5487 5491
5480 5479 5478 5478 5477 5476 5475 5475 5474 5473 5472 5471 5471 5470 5469 5468 5467 5466 5466 5466 5466 5466 5465 5464 5464 5463 5463 5462 5463 5464 5465 5465 5465 5465 5466 5466 5466 5467 5466 5466 5467 5469 5471
5469 5468 5467 5466 5465 5464 5463 5462 5461 5460 5459 5458 5457 5456 5455 5454 5452 5451 5450 5450 5450 5450 5449 5449 5448 5447 5447 5446 5446 5447 5448 5448 5448 5448 5449 5449 5450 5450 5450 5450 5450 5451 5453
5458 5457 5456 5455 5453 5452 5451 5450 5448 5447 5445 5444 5443 5442 5441 5440 5438 5437 5436 5435 5434 5434 5434 5433 5432 5432 5431 5431 5430 5431 5431 5431 5431 5432 5432 5433 5433 5434 5434 5434 5434 5435 5436
5447 5446 5444 5443 5442 5441 5439 5437 5436 5434 5433 5431 5430 5428 5427 5426 5424 5423 5421 5420 5419 5419 5419 5418 5417 5416 5416 5415 5415 5414 5414 5414 5415 5416 5416 5417 5417 5417 5418 5418 5419 5419 5421
5436 5435 5433 5432 5431 5429 5427 5425 5423 5421 5420 5418 5416 5415 5413 5412 5410 5409 5407 5406 5405 5404 5403 5403 5402 5401 5401 5400 5400 5399 5398 5398 5399 5400 5400 5401 5401 5401 5402 5402 5403 5404 5405
5425 5424 5422 5421 5419 5417 5415 5413 5411 5409 5407 5405 5404 5402 5400 5399 5396 5395 5393 5392 5391 5390 5389 5389 5388 5387 5386 5385 5384 5384 5383 5383 5384 5384 5384 5385 5385 5386 5386 5387 5387 5388 5389
5415 5413 5412 5410 5408 5406 5404 5402 5399 5397 5395 5392 5390 5388 5386 5384 5382 5381 5379 5377 5376 5375 5374 5374 5373 5373 5372 5371 5370 5369 5369 5368 5369 5369 5369 5370 5370 5370 5371 5371 5371 5371 5373
5405 5403 5401 5399 5397 5395 5392 5390 5388 5386 5383 5380 5378 5375 5373 5371 5368 5367 5365 5363 5362 5361 5360 5359 5359 5358 5357 5356 5356 5355 5355 5354 5354 5354 5354 5355 5355 5355 5355 5355 5355 5356 5357
5394 5392 5390 5388 5386 5384 5381 5379 5376 5374 5372 5368 5365 5362 5360 5357 5355 5353 5351 5350 5348 5347 5346 5345 5345 5344 5343 5342 5342 5341 5341 5340 5340 5340 5340 5340 5340 5340 5340 5340 5340 5341 5341
5384 5382 5380 5378 5375 5373 5370 5368 5365 5362 5360 5357 5354 5351 5347 5344 5342 5340 5337 5336 5334 5333 5332 5331 5331 5330 5329 5328 5328 5327 5327 5326 5326 5326 5326 5326 5326 5326 5326 5326 5326 5327 5327
5374 5372 5369 5367 5364 5362 5359 5356 5354 5351 5348 5345 5342 5339 5335 5333 5330 5327 5325 5323 5321 5320 5319 5318 5317 5316 5316 5315 5314 5314 5313 5313 5312 5312 5312 5312 5312 5312 5312 5313 5313 5313 5314
5364 5362 5359 5356 5354 5351 5348 5345 5342 5339 5336 5332 5329 5326 5323 5320 5318 5315 5312 5310 5308 5306 5305 5305 5304 5303 5303 5302 5302 5301 5300 5300 5300 5300 5300 5300 5299 5299 5299 5300 5300 5300 5301
5355 5352 5349 5346 5343 5340 5337 5334 5330 5327 5324 5321 5318 5314 5311 5308 5305 5302 5299 5297 5295 5293 5292 5292 5291 5291 5290 5290 5290 5289 5289 5288 5288 5288 5288 5288 5287 5287 5287 5288 5288 5288 5289
5346 5342 5339 5336 5332 5329 5326 5323 5319 5316 5313 5309 5306 5302 5299 5296 5293 5290 5287 5284 5283 5281 5280 5280 5279 5279 5279 5278 5278 5278 5277 5277 5276 5276 5276 5276 5276 5276 5276 5276 5277 5277 5278
5337 5333 5329 5326 5322 5319 5315 5312 5309 5305 5302 5299 5295 5292 5288 5285 5282 5279 5276 5273 5272 5270 5269 5269 5268 5268 5268 5267 5267 5267 5266 5266 5265 5265 5265 5265 5266 5266 5266 5266 5267 5267 5268
5328 5324 5320 5316 5313 5309 5306 5302 5299 5295 5292 5289 5285 5282 5279 5275 5272 5269 5266 5264 5262 5261 5260 5259 5258 5258 5257 5257 5257 5256 5256 5255 5255 5254 5255 5255 5256 5256 5256 5257 5257 5258 5259
5319 5315 5311 5308 5304 5300 5297 5293 5290 5286 5283 5280 5276 5273 5269 5266 5263 5260 5257 5255 5253 5252 5250 5249 5249 5248 5248 5247 5247 5246 5246 5245 5245 5245 5245 5246 5247 5247 5248 5249 5249 5250 5251